Location: Reutlingen
(48.4911°N, 9.2587°E)
Time: 02:10:33
(UTC+01:00)

ISS - Pass Details

Date: 10 February 2018
Orbit: 403 x 407 km, 51.6° (Epoch: 22 February)

Event Time Altitude Azimuth Distance (km) Brightness Sun altitude
Rises 18:39:32 0° 291° (WNW) 2,322 1.2 -11.0°
Reaches altitude 10° 18:41:39 10° 286° (WNW) 1,460 0.1 -11.3°
Maximum altitude 18:44:50 51° 210° (SSW) 516 -3.1 -11.8°
Enters shadow 18:47:58 10° 133° (SE) 1,436 -1.4 -12.3°
